[[{"header":{"parameterUnit":"m.s-1","parameterCategory":1,"la1":30.2991,"la2":30.254,"lo1":-89.0895,"lo2":-89.0444,"dy":0.0017,"dx":0.0017,"nx":28,"ny":28,"refTime":"2026-01-30T09:00:00:Z","depth":0,"parameterNumber":2,"parameterNumberName":"U-component_of_WINDS"},"data":[0,0,0,0,0,0,0,0,0,0,0,0,0,0,0,0,0,0,0,0,0,0,0,0,0,0,0,0,0,0,0,0,0,0,0,0,0,0,0,0,0,0,0,0,0,0,0,0,0,0,0,0,0,0,0,0,0,0,4.4664,4.4664,0,4.4695,4.4695,4.4696,4.4638,4.4636,4.4634,4.4632,4.4662,4.4664,4.4667,0,0,0,0,0,0,0,0,0,0,0,0,0,4.4555,4.4557,4.4664,4.4664,4.4665,4.4695,4.4695,4.4696,4.4638,4.4636,4.4633,4.4631,4.4661,4.4664,4.4667,0,0,0,0,0,0,0,0,0,0,0,0,0,4.4596,4.4558,4.4664,4.464,4.4638,4.4695,4.4695,4.4696,4.4638,4.4635,4.4633,4.463,4.466,4.4664,4.4667,4.4749,0,0,4.4679,4.4681,0,0,0,0,0,0,0,0,4.4594,4.46,4.4643,4.4641,4.4639,4.4659,4.4668,4.4714,4.4639,4.4638,4.4632,4.4628,4.4663,4.4667,4.4679,4.475,4.4752,4.468,4.4682,4.4684,4.4685,0,0,0,0,0,0,0,4.4591,4.4598,4.4676,4.4644,4.4642,4.4627,4.463,4.4676,4.4666,4.4638,4.4634,4.4638,4.4662,4.4675,4.4679,4.4752,4.4679,4.4683,4.4685,4.4687,4.4895,4.4898,0,0,0,0,0,0,4.4591,4.4596,4.4675,4.4677,4.4609,4.4632,4.4634,4.4656,4.4666,4.4664,4.4641,4.4636,4.467,4.4674,4.468,4.4777,4.4683,4.4687,4.4689,4.4892,4.4895,4.4899,0,0,0,0,0,0,4.4589,4.4599,4.4674,4.4636,4.4644,4.4636,4.4661,4.4658,4.4671,4.4668,4.4666,4.4656,4.4668,4.4674,4.4733,4.4777,4.4689,4.4692,4.4888,4.4893,4.4897,4.4972,0,0,0,0,0,0,4.4586,4.4598,4.4629,4.4637,4.4646,4.4727,4.4664,4.4661,4.4678,4.4672,4.4682,4.4681,4.4666,4.4727,4.4737,4.4781,4.4695,4.4884,4.489,4.4896,4.4966,4.4979,4.499,0,0,0,0,0,4.4582,4.4648,4.4631,4.4641,4.4685,4.4729,4.4735,4.4717,4.4682,4.4713,4.4712,4.468,4.4771,4.4734,4.4744,4.479,4.4881,4.4888,4.4895,4.496,4.4976,4.499,0,0,0,0,0,0,4.4644,4.4648,4.4629,4.4699,4.4715,4.472,4.4758,4.4734,4.4759,4.4752,4.4728,4.4731,4.4795,4.4798,4.4757,4.4871,4.482,4.483,4.4866,4.4881,4.4893,4.4891,4.4699,0,0,0,0,0,4.4666,4.4702,4.4704,4.4766,4.4775,4.4765,4.4784,4.4769,4.4784,4.479,4.4792,4.4807,4.4839,4.486,4.4889,4.4966,4.4968,4.5003,4.5016,4.5026,4.5034,4.5077,4.5092,4.4923,4.4922,4.4922,0,0,4.4711,4.4718,4.4742,4.4778,4.4788,4.4827,4.4771,4.4813,4.4841,4.4796,4.4852,4.4854,4.487,4.4938,4.4969,4.4943,4.5082,4.5035,4.5043,4.5046,4.5086,4.5102,4.5116,4.4927,4.4927,4.4926,0,0,4.4813,4.4822,4.4875,4.4887,4.4904,4.4898,4.4911,4.492,4.492,4.4977,4.4944,4.4977,4.5032,4.5045,4.5059,4.517,4.5143,4.518,4.5244,4.5286,4.5299,4.5311,4.5351,4.5366,4.5189,4.5189,4.5189,0,4.4867,4.4924,4.4905,4.4951,4.4968,4.4931,4.4985,4.4997,4.5022,4.5035,4.5007,4.5077,4.5084,4.5156,4.5184,4.5196,4.5211,4.5178,4.5299,4.531,4.5321,4.5359,4.5375,4.5193,4.5193,4.5192,4.5192,0,4.499,4.503,4.5071,4.5098,4.512,4.517,4.5159,4.5184,4.5168,4.5165,4.5224,4.5232,4.5263,4.5279,4.5264,4.535,4.5334,4.5303,4.5251,4.5342,4.5378,4.5392,4.52,4.5198,4.5197,4.5196,0,0,4.5129,4.5148,4.5163,4.5176,4.5193,4.5223,4.5272,4.5304,4.5326,4.5345,4.5386,4.5435,4.5407,4.5423,4.5409,4.5446,4.5535,4.541,4.541,4.5433,4.5632,4.5655,4.5672,4.5517,4.552,4.5522,4.5631,0,4.5231,4.5316,4.5302,4.5384,4.5421,4.5388,4.543,4.5446,4.5445,4.5477,4.5476,4.5512,4.5472,4.5481,4.5516,4.5516,4.5574,4.5508,4.5555,4.5557,4.5552,4.5691,4.5715,4.5817,4.5644,4.5647,4.5648,0,4.5361,4.5387,4.5473,4.5487,4.5502,4.554,4.557,4.56,4.5618,4.5615,4.5635,4.5614,4.5664,4.5613,4.5681,4.5636,4.5655,4.5658,4.5662,4.5665,4.5608,4.5698,4.5849,4.5864,4.567,4.5668,4.5666,0,4.5455,4.5512,4.5571,4.5583,4.56,4.5628,4.5636,4.5651,4.5672,4.5697,4.5711,4.5742,4.5758,4.5783,4.5772,4.5736,4.5843,4.579,4.5842,4.5842,4.5865,4.5864,4.6021,4.5878,4.5877,4.5877,4.5877,0,4.557,4.5624,4.5614,4.565,4.5711,4.5695,4.5755,4.5759,4.5773,4.581,4.5783,4.5818,4.5801,4.5836,4.5828,4.5886,4.5894,4.5893,4.589,4.5895,4.5896,4.5907,4.5899,4.5881,4.588,4.5879,4.5879,0,4.5685,4.568,4.5743,4.5755,4.5759,4.5803,4.5813,4.5848,4.5846,4.5894,4.5904,4.5901,4.5941,4.5933,4.5975,4.597,4.6044,4.6032,4.6038,4.6035,4.6088,4.6083,4.6258,4.628,4.6122,4.6123,4.6125,0,4.5758,4.58,4.5817,4.5841,4.5852,4.5889,4.5911,4.5898,4.5922,4.5946,4.5978,4.6016,4.6045,4.6109,4.6111,4.6144,4.6133,4.6192,4.6138,4.6143,4.6135,4.6133,4.6137,4.6203,4.6205,4.6206,4.6207,0,4.589,4.5886,4.5919,4.5952,4.5979,4.6004,4.6026,4.6047,4.6036,4.6064,4.6105,4.6128,4.6173,4.6211,4.6242,4.6251,4.6228,4.6225,4.6239,4.6244,4.6246,4.6247,4.6068,4.622,4.6219,4.6218,4.6217,4.6217,4.5987,4.6023,4.6041,4.6079,4.6095,4.6117,4.6151,4.6155,4.6189,4.6225,4.6215,4.6262,4.6281,4.6321,4.6333,4.637,4.6347,4.6367,4.6372,4.6377,4.6384,4.6241,4.6375,4.6375,4.6374,4.6374,4.6374,0,4.6117,4.6129,4.6164,4.6197,4.6228,4.6205,4.6229,4.6256,4.6297,4.6317,4.6347,4.6395,4.6432,4.6438,4.6473,4.6502,4.6492,4.6511,4.6509,4.6512,4.6401,4.6386,4.6519,4.6519,4.6519,4.6519,4.6519,4.6519,4.6189,4.6249,4.6248,4.6317,4.6327,4.6373,4.6389,4.641,4.6426,4.6481,4.6512,4.6516,4.6531,4.6568,4.6601,4.6602,4.6616,4.664,4.6637,4.6534,4.6519,4.6505,4.6491,4.6643,4.6643,4.6744,4.6745,4.6746]},{"header":{"parameterUnit":"m.s-1","parameterCategory":1,"la1":30.2991,"la2":30.254,"lo1":-89.0895,"lo2":-89.0444,"dy":0.0017,"dx":0.0017,"nx":28,"ny":28,"refTime":"2026-01-30T09:00:00:Z","depth":0,"parameterNumber":3,"parameterNumberName":"V-component_of_WINDS"},"data":[0,0,0,0,0,0,0,0,0,0,0,0,0,0,0,0,0,0,0,0,0,0,0,0,0,0,0,0,0,0,0,0,0,0,0,0,0,0,0,0,0,0,0,0,0,0,0,0,0,0,0,0,0,0,0,0,0,0,-9.6652,-9.6654,0,-9.6833,-9.6835,-9.6837,-9.6777,-9.6773,-9.6769,-9.6766,-9.6945,-9.6954,-9.6962,0,0,0,0,0,0,0,0,0,0,0,0,0,-9.6249,-9.6257,-9.6652,-9.6654,-9.6656,-9.6833,-9.6835,-9.6838,-9.6778,-9.6773,-9.6768,-9.6764,-9.6943,-9.6953,-9.6963,0,0,0,0,0,0,0,0,0,0,0,0,0,-9.6427,-9.626,-9.6651,-9.6648,-9.6649,-9.6832,-9.6835,-9.6839,-9.6779,-9.6773,-9.6767,-9.6762,-9.6939,-9.6952,-9.6964,-9.716,0,0,-9.7003,-9.7008,0,0,0,0,0,0,0,0,-9.6417,-9.6441,-9.6646,-9.6648,-9.665,-9.6777,-9.6759,-9.6946,-9.678,-9.673,-9.6766,-9.6759,-9.6894,-9.691,-9.6956,-9.7168,-9.7176,-9.7004,-9.7012,-9.7017,-9.7021,0,0,0,0,0,0,0,-9.6404,-9.6433,-9.6723,-9.6649,-9.6652,-9.6636,-9.6655,-9.6794,-9.6842,-9.6733,-9.673,-9.6752,-9.6894,-9.6944,-9.696,-9.7179,-9.7004,-9.7015,-9.7023,-9.7028,-9.7562,-9.7569,0,0,0,0,0,0,-9.6392,-9.6423,-9.6717,-9.6729,-9.6517,-9.6648,-9.6669,-9.6742,-9.684,-9.685,-9.6757,-9.6749,-9.6926,-9.6946,-9.6966,-9.7204,-9.7017,-9.7029,-9.7036,-9.7556,-9.7564,-9.7571,0,0,0,0,0,0,-9.6383,-9.6418,-9.671,-9.6575,-9.6611,-9.6661,-9.6744,-9.6749,-9.6799,-9.6858,-9.6866,-9.6801,-9.6922,-9.6948,-9.7113,-9.7209,-9.7035,-9.7046,-9.7548,-9.7558,-9.7567,-9.7679,0,0,0,0,0,0,-9.6372,-9.6416,-9.6491,-9.6577,-9.6619,-9.6856,-9.675,-9.6756,-9.6822,-9.6813,-9.6901,-9.691,-9.6919,-9.7095,-9.7126,-9.7223,-9.7056,-9.754,-9.7553,-9.7564,-9.7667,-9.7692,-9.7713,0,0,0,0,0,-9.6358,-9.6514,-9.6495,-9.6531,-9.6715,-9.6861,-9.6885,-9.6894,-9.683,-9.6906,-9.6945,-9.6907,-9.7194,-9.7112,-9.7147,-9.7249,-9.7534,-9.7549,-9.7563,-9.7657,-9.7687,-9.7712,0,0,0,0,0,0,-9.6434,-9.6525,-9.6505,-9.6694,-9.6771,-9.6851,-9.6947,-9.6925,-9.7019,-9.7007,-9.7012,-9.7033,-9.7202,-9.7242,-9.715,-9.7445,-9.7354,-9.7376,-9.7413,-9.7442,-9.7464,-9.7451,-9.7066,0,0,0,0,0,-9.6474,-9.6587,-9.6659,-9.6818,-9.6858,-9.6897,-9.696,-9.6962,-9.704,-9.7072,-9.7122,-9.7198,-9.7305,-9.7376,-9.7477,-9.7672,-9.7691,-9.776,-9.7783,-9.7801,-9.7821,-9.7929,-9.7961,-9.762,-9.762,-9.7619,0,0,-9.6555,-9.6619,-9.6689,-9.6836,-9.6895,-9.7012,-9.6924,-9.705,-9.7136,-9.709,-9.725,-9.729,-9.7375,-9.7557,-9.7639,-9.7595,-9.7919,-9.782,-9.7835,-9.7844,-9.7947,-9.798,-9.8008,-9.763,-9.7628,-9.7627,0,0,-9.6764,-9.6823,-9.6964,-9.7026,-9.7118,-9.7143,-9.7177,-9.7262,-9.7287,-9.7448,-9.7417,-9.7518,-9.7703,-9.7766,-9.7822,-9.8058,-9.8028,-9.8091,-9.821,-9.8315,-9.8342,-9.8366,-9.8451,-9.8482,-9.811,-9.811,-9.811,0,-9.6853,-9.7029,-9.7038,-9.7169,-9.7234,-9.7201,-9.7343,-9.7402,-9.7522,-9.7568,-9.7518,-9.7751,-9.7805,-9.8002,-9.8061,-9.8107,-9.8145,-9.8081,-9.8338,-9.8362,-9.8384,-9.8465,-9.8497,-9.8117,-9.8116,-9.8116,-9.8115,0,-9.7135,-9.7257,-9.7359,-9.748,-9.7557,-9.7692,-9.7722,-9.7798,-9.7793,-9.7823,-9.7988,-9.8054,-9.8169,-9.8216,-9.821,-9.8413,-9.8383,-9.8335,-9.8244,-9.8424,-9.85,-9.8531,-9.8128,-9.8125,-9.8123,-9.8121,0,0,-9.7395,-9.7521,-9.7559,-9.7614,-9.7715,-9.7809,-9.7943,-9.8059,-9.8126,-9.821,-9.8323,-9.8481,-9.8439,-9.8503,-9.8504,-9.8597,-9.8782,-9.8538,-9.854,-9.8582,-9.901,-9.9046,-9.9082,-9.8762,-9.8768,-9.8773,-9.9004,0,-9.7613,-9.7851,-9.7865,-9.8081,-9.8195,-9.8166,-9.8283,-9.8357,-9.839,-9.849,-9.8524,-9.8637,-9.8572,-9.8611,-9.8701,-9.874,-9.8868,-9.8723,-9.8867,-9.8872,-9.8847,-9.9122,-9.916,-9.9375,-9.9033,-9.9039,-9.9042,0,-9.7898,-9.7996,-9.8224,-9.8311,-9.8359,-9.8465,-9.8573,-9.867,-9.8753,-9.877,-9.8844,-9.8833,-9.897,-9.8875,-9.9064,-9.8966,-9.9025,-9.9054,-9.9062,-9.9076,-9.8968,-9.9145,-9.9443,-9.9476,-9.9089,-9.9086,-9.9082,0,-9.8068,-9.8255,-9.8416,-9.8464,-9.857,-9.8645,-9.8692,-9.877,-9.884,-9.8934,-9.8979,-9.9087,-9.9146,-9.923,-9.9249,-9.9177,-9.9439,-9.9344,-9.9456,-9.9456,-9.9513,-9.9509,-9.9826,-9.955,-9.9549,-9.9549,-9.9548,0,-9.831,-9.8451,-9.8494,-9.8594,-9.8751,-9.8765,-9.892,-9.8962,-9.9032,-9.9139,-9.9119,-9.9219,-9.9238,-9.9341,-9.9357,-9.9512,-9.9538,-9.9555,-9.9558,-9.9558,-9.9556,-9.9597,-9.9583,-9.9557,-9.9556,-9.9554,-9.9552,0,-9.8525,-9.856,-9.8734,-9.8821,-9.8846,-9.8959,-9.9032,-9.9128,-9.9158,-9.9294,-9.9326,-9.9374,-9.9495,-9.9523,-9.9666,-9.9676,-9.9861,-9.9848,-9.9834,-9.9833,-9.9944,-9.9934,-10.0299,-10.0349,-10.004,-10.0042,-10.0045,0,-9.8678,-9.8787,-9.8886,-9.8958,-9.9009,-9.9124,-9.9196,-9.9214,-9.929,-9.9395,-9.9478,-9.9598,-9.9695,-9.989,-9.9936,-10.0046,-10.0037,-10.0157,-10.0053,-10.005,-10.004,-10.0034,-10.0045,-10.0177,-10.0181,-10.0183,-10.0185,0,-9.8946,-9.8959,-9.9064,-9.9178,-9.9265,-9.9354,-9.9439,-9.9498,-9.9528,-9.9614,-9.9739,-9.9815,-9.9964,-10.0083,-10.0194,-10.024,-10.0219,-10.0218,-10.025,-10.0252,-10.024,-10.0249,-9.9889,-10.021,-10.0207,-10.0205,-10.0204,-10.0203,-9.9136,-9.9232,-9.9318,-9.9437,-9.9504,-9.9585,-9.9679,-9.9723,-9.9829,-9.9954,-9.9957,-10.0095,-10.0177,-10.0324,-10.0378,-10.0485,-10.0447,-10.0493,-10.0505,-10.0517,-10.0528,-10.0223,-10.0505,-10.0504,-10.0504,-10.0503,-10.0503,0,-9.9404,-9.9459,-9.9569,-9.969,-9.9784,-9.9758,-9.9851,-9.9931,-10.0053,-10.0133,-10.023,-10.0375,-10.0492,-10.0549,-10.0664,-10.0738,-10.0731,-10.0768,-10.0763,-10.0775,-10.0554,-10.0515,-10.0772,-10.0772,-10.0772,-10.0772,-10.0772,-10.0772,-9.9555,-9.9717,-9.974,-9.9935,-9.9989,-10.0125,-10.0181,-10.0255,-10.0319,-10.0484,-10.0582,-10.0619,-10.069,-10.081,-10.0916,-10.093,-10.0973,-10.1016,-10.1024,-10.0817,-10.079,-10.0764,-10.0727,-10.1025,-10.1025,-10.1236,-10.1238,-10.124]}]]